Weather History for EDDN - November, 2012

Change the Weather History Date:

Sunday, November 11, 2012

  Actual Average Record
Temperature  
Mean Temperature 46 °F -  
Max Temperature 49 °F 42 °F 59 °F (2008)
Min Temperature 44 °F 31 °F 19 °F (2001)
Degree Days  
Heating Degree Days 18    
Moisture  
Dew Point 47 °F    
Average Humidity 98    
Maximum Humidity 100    
Minimum Humidity 93    
Precipitation  
Precipitation 0.28 in 0.06 in - ()
Sea Level Pressure  
Sea Level Pressure 29.86 in    
Wind  
Wind Speed 5 mph ()    
Max Wind Speed 12 mph    
Max Gust Speed -    
Visibility 4.7 miles    
Events Fog , Rain    
Averages and records for this station are not official NWS values.
T = Trace of Precipitation, MM = Missing Value Source: Averaged Metar Reports

Daily Weather History Graph

Daily Weather History Graph

Search for Another Location

Airport or City:

Trip Planner

Search our weather history database for the weather conditions in past years. The results will help you decide how hot, cold, wet, or windy it might be!

Date:

Astronomy

Nov. 11, 2012 Rise Set
Actual Time 7:20 AM CET 4:38 PM CET
Civil Twilight 6:46 AM CET 5:12 PM CET
Nautical Twilight 6:07 AM CET 5:51 PM CET
Astronomical Twilight 5:30 AM CET 6:28 PM CET
Moon 4:01 AM CET (11/11) 3:01 PM CET (11/11)
Length of Visible Light 10h 26m
Length of Day
9h 17m
Waning Crescent, 9% of the Moon is Illuminated
Nov 11
Waning Crescent
Nov 13
New
Nov 20
First Quarter
Nov 28
Full
Dec 6
Last Quarter

Hourly Weather History & Observations

Time (CET) Temp. Windchill Dew Point Humidity Pressure Visibility Wind Dir Wind Speed Gust Speed Precip Events Conditions
12:00 AM 45 °F - 44 °F 95% 29.74 in 6 mi East 4.5 mph - - Rain Rain
12:20 AM 44.6 °F 40.7 °F 44.6 °F 100% 29.71 in 5.6 mi East 6.9 mph - N/A Rain Rain
12:50 AM 46.4 °F 44.3 °F 44.6 °F 93% 29.74 in 4.3 mi ESE 4.6 mph - N/A Rain Rain
1:00 AM 45 °F - 45 °F 98% 29.76 in 4 mi ESE 4.5 mph - - Rain Rain
1:20 AM 44.6 °F 40.7 °F 44.6 °F 100% 29.74 in 4.3 mi East 6.9 mph - N/A Rain Rain
1:50 AM 44.6 °F 39.7 °F 44.6 °F 100% 29.71 in 4.3 mi East 9.2 mph - N/A Rain Rain
2:00 AM 45 °F - 45 °F 100% 29.75 in 4 mi East 8.9 mph - - Rain Rain
2:20 AM 46.4 °F 41.1 °F 46.4 °F 100% 29.71 in 4.3 mi ESE 11.5 mph - N/A Rain Rain
2:50 AM 46.4 °F 42.4 °F 46.4 °F 100% 29.71 in 6.2 mi ESE 8.1 mph - N/A Rain Light Rain
3:00 AM 46 °F - 46 °F 100% 29.73 in 7 mi ESE 8.9 mph - - Rain Light Rain
3:20 AM 46.4 °F - 46.4 °F 100% 29.74 in 6.2 mi NNW 2.3 mph - N/A Rain Rain
3:50 AM 46.4 °F 44.3 °F 46.4 °F 100% 29.74 in 5.6 mi North 4.6 mph - N/A Rain Light Rain
4:20 AM 46.4 °F 42.9 °F 46.4 °F 100% 29.74 in 5.6 mi ESE 6.9 mph - N/A Fog Fog
4:50 AM 46.4 °F 42.9 °F 46.4 °F 100% 29.74 in 5.0 mi ESE 6.9 mph - N/A Rain Light Rain
5:00 AM 47 °F - 47 °F 100% 29.77 in 5 mi ESE 6.7 mph - - Rain Light Rain
5:20 AM 46.4 °F 42.4 °F 46.4 °F 100% 29.74 in 5.6 mi SE 8.1 mph - N/A   Mostly Cloudy
5:50 AM 46.4 °F 43.5 °F 44.6 °F 93% 29.74 in 5.6 mi ESE 5.8 mph - N/A   Unknown
6:00 AM 46 °F - 45 °F 96% 29.77 in 6 mi ESE 6.7 mph - - Rain Light Rain
6:20 AM 46.4 °F 44.3 °F 44.6 °F 93% 29.74 in 5.6 mi SE 4.6 mph - N/A   Unknown
6:50 AM 46.4 °F 43.5 °F 46.4 °F 100% 29.74 in 5.0 mi SSE 5.8 mph - N/A Rain Light Rain
7:00 AM 46 °F - 46 °F 97% 29.78 in 5 mi SSE 6.7 mph - - Rain Light Rain
7:20 AM 46.4 °F 45.2 °F 46.4 °F 100% 29.77 in 5.0 mi SE 3.5 mph - N/A   Mostly Cloudy
7:50 AM 46.4 °F - 46.4 °F 100% 29.77 in 5.0 mi Variable 1.2 mph - N/A   Mostly Cloudy
8:00 AM 46 °F - 46 °F 97% 29.81 in 5 mi NE 2.2 mph - - Rain Light Rain
8:20 AM 46.4 °F 45.2 °F 46.4 °F 100% 29.80 in 4.3 mi SE 3.5 mph - N/A Rain Light Rain
8:50 AM 46.4 °F 45.2 °F 46.4 °F 100% 29.80 in 3.7 mi ESE 3.5 mph - N/A Rain Rain
9:00 AM 47 °F - 46 °F 96% 29.83 in 4 mi ESE 4.5 mph - - Rain Rain
9:20 AM 46.4 °F 45.2 °F 46.4 °F 100% 29.80 in 3.1 mi East 3.5 mph - N/A Rain Rain
9:50 AM 46.4 °F 44.3 °F 46.4 °F 100% 29.80 in 3.1 mi ESE 4.6 mph - N/A Rain Light Rain
10:20 AM 48.2 °F - 48.2 °F 100% 29.80 in 2.5 mi East 4.6 mph - N/A Rain Rain
10:50 AM 48.2 °F - 48.2 °F 100% 29.83 in 2.5 mi ESE 4.6 mph - N/A Rain Rain
11:00 AM 48 °F - 47 °F 97% 29.84 in 2 mi ESE 4.5 mph - - Rain Rain
11:20 AM 48.2 °F - 48.2 °F 100% 29.83 in 2.5 mi East 2.3 mph - N/A Rain Rain
11:50 AM 48.2 °F - 48.2 °F 100% 29.83 in - East 2.3 mph - N/A Rain Rain
12:00 PM 49 °F - 48 °F 94% 29.84 in 2 mi ESE 2.2 mph - - Rain Rain
12:20 PM 48.2 °F - 48.2 °F 100% 29.80 in - Variable 1.2 mph - N/A Rain Rain
12:50 PM 48.2 °F - 48.2 °F 100% 29.80 in - WNW 2.3 mph - N/A Rain Rain
1:00 PM 49 °F - 48 °F 96% 29.83 in 2 mi NW 2.2 mph - - Rain Rain
1:20 PM 50.0 °F - 48.2 °F 94% 29.83 in 2.2 mi West 2.3 mph - N/A Rain Light Rain
1:50 PM 50.0 °F - 50.0 °F 100% 29.83 in 2.2 mi WNW 2.3 mph - N/A Rain Light Rain
2:00 PM 49 °F - 49 °F 100% 29.85 in 2 mi NW 2.2 mph - - Rain Light Rain
2:20 PM 50.0 °F - 48.2 °F 94% 29.83 in - WNW 3.5 mph - N/A Rain Rain
2:50 PM 50.0 °F - 50.0 °F 100% 29.86 in - WNW 3.5 mph - N/A Rain Rain
3:00 PM 49 °F - 49 °F 100% 29.88 in 2 mi WNW 4.5 mph - - Rain Rain
3:20 PM 50.0 °F - 50.0 °F 100% 29.86 in 2.2 mi WNW 3.5 mph - N/A Rain Rain
3:50 PM 50.0 °F - 50.0 °F 100% 29.89 in 2.2 mi WNW 3.5 mph - N/A Rain Light Rain
4:20 PM 50.0 °F - 50.0 °F 100% 29.89 in 2.2 mi WNW 3.5 mph - N/A Rain Rain
4:50 PM 50.0 °F - 50.0 °F 100% 29.89 in - NW 4.6 mph - N/A Rain Rain
5:20 PM 50.0 °F - 50.0 °F 100% 29.92 in 2.8 mi NW 3.5 mph - N/A Rain Light Rain
5:50 PM 48.2 °F - 48.2 °F 100% 29.92 in 6.2 mi WNW 2.3 mph - N/A   Mostly Cloudy
6:00 PM 49 °F - 48 °F 97% 29.95 in 6 mi NW 2.2 mph - - Rain Light Rain
6:20 PM 48.2 °F - 48.2 °F 100% 29.95 in 6.2 mi West 2.3 mph - N/A Fog Shallow Fog
6:50 PM 48.2 °F - 48.2 °F 100% 29.95 in 6.2 mi WNW 3.5 mph - N/A Fog Shallow Fog
7:00 PM 48 °F - 48 °F 99% 29.99 in 8 mi SW 2.2 mph - - Fog Patches of Fog
7:20 PM 48.2 °F - 48.2 °F 100% 29.98 in 6.2 mi West 2.3 mph - N/A Fog Shallow Fog
7:50 PM 48.2 °F - 48.2 °F 100% 30.01 in 6.2 mi WNW 5.8 mph - N/A   Mostly Cloudy
8:00 PM 48 °F - 48 °F 98% 30.03 in 7 mi WNW 6.7 mph - -   Overcast
8:20 PM 48.2 °F - 48.2 °F 100% 30.01 in 6.2 mi WNW 4.6 mph - N/A   Mostly Cloudy
8:50 PM 48.2 °F - 48.2 °F 100% 30.04 in 6.2 mi WNW 4.6 mph - N/A   Mostly Cloudy
9:00 PM 48 °F - 48 °F 98% 30.06 in 7 mi WNW 6.7 mph - - Rain Light Rain
9:20 PM 48.2 °F - 46.4 °F 93% 30.06 in 6.2 mi West 4.6 mph - N/A Rain Light Rain
9:50 PM 46.4 °F 43.5 °F 46.4 °F 100% 30.06 in 6.2 mi WNW 5.8 mph - N/A   Mostly Cloudy
10:20 PM 46.4 °F 45.2 °F 44.6 °F 93% 30.06 in 6.2 mi WNW 3.5 mph - N/A   Mostly Cloudy
10:50 PM 46.4 °F - 44.6 °F 93% 30.09 in 6.2 mi Variable 1.2 mph - N/A Fog Shallow Fog
11:00 PM 46 °F - 45 °F 94% 30.11 in 6 mi West 2.2 mph - - Rain Light Rain
11:20 PM 46.4 °F 44.3 °F 44.6 °F 93% 30.09 in 6.2 mi SW 4.6 mph - N/A Fog Shallow Fog
11:50 PM 44.6 °F - 44.6 °F 100% 30.09 in 6.2 mi WNW 2.3 mph - N/A Fog Shallow Fog